TimeCET,TemperatureF,Dew PointF,Humidity,Sea Level PressureIn,VisibilityMPH,Wind Direction,Wind SpeedMPH,Gust SpeedMPH,PrecipitationIn,Events,Conditions,WindDirDegrees,DateUTC
12:55 AM,35.6,32.0,87,30.04,6.2,NNE,6.9,-,N/A,,Partly Cloudy,20,2012-11-19 23:55:00
1:55 AM,35.6,30.2,81,30.04,6.2,NNE,5.8,-,N/A,,Partly Cloudy,20,2012-11-20 00:55:00
4:00 AM,35,30,77,,31,NNE,9.2,,,,Clear,20,2012-11-20 03:00:00
5:55 AM,33.8,30.2,87,30.01,-9999.0,North,9.2,-,N/A,,Clear,10,2012-11-20 04:55:00
6:55 AM,33.8,28.4,81,30.01,-9999.0,North,9.2,-,N/A,,Clear,350,2012-11-20 05:55:00
7:00 AM,34,29,75,,37,North,9.2,,,,Scattered Clouds,350,2012-11-20 06:00:00
7:55 AM,33.8,28.4,81,30.04,-9999.0,North,9.2,-,N/A,,Clear,350,2012-11-20 06:55:00
8:55 AM,33.8,30.2,87,30.04,-9999.0,North,8.1,-,N/A,,Clear,350,2012-11-20 07:55:00
9:55 AM,35.6,30.2,81,30.04,-9999.0,North,6.9,-,N/A,,Clear,10,2012-11-20 08:55:00
10:00 AM,36,30,71,,44,North,6.9,,,,Clear,10,2012-11-20 09:00:00
10:55 AM,35.6,30.2,81,30.06,-9999.0,North,3.5,-,N/A,,Clear,360,2012-11-20 09:55:00
11:55 AM,37.4,28.4,70,30.06,-9999.0,NNW,6.9,-,N/A,,Clear,340,2012-11-20 10:55:00
12:55 PM,39.2,26.6,61,30.04,-9999.0,North,6.9,-,N/A,,Clear,350,2012-11-20 11:55:00
1:00 PM,39,27,49,,44,North,6.9,,,,Clear,350,2012-11-20 12:00:00
1:55 PM,39.2,26.6,61,30.04,-9999.0,North,10.4,-,N/A,,Clear,350,2012-11-20 12:55:00
2:55 PM,39.2,26.6,61,30.04,-9999.0,NNW,9.2,-,N/A,,Clear,340,2012-11-20 13:55:00
3:55 PM,39.2,26.6,61,30.04,-9999.0,North,10.4,-,N/A,,Clear,360,2012-11-20 14:55:00
4:00 PM,39,26,49,,44,North,10.4,,,,Clear,0,2012-11-20 15:00:00
4:55 PM,39.2,26.6,61,30.04,-9999.0,North,11.5,-,N/A,,Clear,350,2012-11-20 15:55:00
5:55 PM,37.4,28.4,70,30.04,-9999.0,NE,10.4,-,N/A,,Clear,40,2012-11-20 16:55:00
6:55 PM,37.4,28.4,70,30.06,-9999.0,NNE,8.1,-,N/A,,Clear,20,2012-11-20 17:55:00
7:00 PM,38,29,58,,31,NNE,8.1,,,,Clear,20,2012-11-20 18:00:00
7:55 PM,37.4,26.6,65,30.06,-9999.0,North,10.4,-,N/A,,Clear,350,2012-11-20 18:55:00
8:55 PM,37.4,26.6,65,30.06,-9999.0,North,10.4,-,N/A,,Clear,350,2012-11-20 19:55:00
9:55 PM,39.2,24.8,56,30.06,-9999.0,North,11.5,-,N/A,,Clear,360,2012-11-20 20:55:00
10:00 PM,38,25,47,,31,North,11.5,,,,,0,2012-11-20 21:00:00
10:55 PM,37.4,26.6,65,30.06,-9999.0,North,10.4,-,N/A,,Clear,360,2012-11-20 21:55:00
11:55 PM,39.2,24.8,56,30.06,-9999.0,North,9.2,-,N/A,,Clear,10,2012-11-20 22:55:00